www.pogodaiklimat.ru

Погода и климат >> Архив погоды >> Индия >> Thondi


ПОГОДА в Thondi

  • Прогноз погоды в Thondi
  • Монитор погоды в Thondi
  • Климат города

АРХИВ ПОГОДЫ в Thondi

Время (UTC), дата Ветер
(напр.,м/с)
 
Видим.   Явления Облачность Т
(С)
Тd
(С)
f
(%)
Тe
(С)
Тes
(С)
Комфортность P
(гПа)
Po
(гПа)
Тmin
(С)
Tmax
(С)
R
(мм)
R24
(мм)
S
(см)
03 13.07 штиль 0 10 км 4/1 600 м
[Sc Ci fib]
+30.0 +22.4 64 +39 +48 очень
душно
1006.4 1005.8 +27.4 +40.4
06 13.07 З 2 10 км 8/3 600 м
[Sc diur, vesp Ac trans Ci fib]
+35.6 +20.8 42 +42 +52 опасность
перегрева
1005.9 1005.3
09 13.07 З 2 10 км 9/4 600 м
[Sc diur, vesp Ac As Ci fib]
+37.0 +20.1 37 +43 +48 опасность
перегрева
1003.5 1002.9
12 13.07 СЗ 1 10 км 9/3 600 м
[Sc diur, vesp Ac As Ci fib]
+34.6 +19.5 41 +40 +41 очень
душно
1003.0 1002.4 +37.3
15 13.07 СЗ 1 4000 м 10/4 600 м
[Sc diur, vesp Ac As]
+32.6 +20.0 47 +39 +39 очень
душно
1004.9 1004.3
18 13.07 штиль 0 4000 м 8/3 600 м
[Sc diur, vesp Ac As]
+31.0 +20.5 54 +38 +38 очень
душно
1006.3 1005.6
21 13.07 штиль 0 4000 м 8/4 600 м
[Sc diur, vesp Ac As]
+29.0 +28.2 95 +48 +48 опасность
перегрева
1005.1 1004.5
00 14.07 штиль 0 4000 м 6/3 600 м
[Sc diur, vesp Ac As]
+28.0 +23.3 76 +38 +38 очень
душно
1004.8 1004.2
03 14.07 штиль 0 10 км 6/3 600 м
[Sc diur, vesp Ac trans Ci fib]
+30.6 +23.0 64 +41 +46 опасность
перегрева
1005.7 1005.1 +27.7 +37.3
06 14.07 ЮВ 2 10 км 5/3 600 м
[Sc diur, vesp Ac trans Ci fib]
+35.0 +25.5 58 +50 +62 опасность
перегрева
1005.4 1004.8
09 14.07 ЮВ 4 10 км 9/4 600 м
[Sc diur, vesp Ac As Ci fib]
+32.8 +28.2 77 +54 +58 опасность
перегрева
1003.8 1003.2
12 14.07 ЮВ 3 10 км 9/3 600 м
[Sc diur, vesp Ac As]
+31.2 +27.3 80 +50 +50 опасность
перегрева
1002.6 1002.0 +36.8
15 14.07 штиль 0 4000 м 5/3 600 м
[Sc diur, vesp Ac trans Ci sp]
+29.6 +26.0 81 +44 +44 опасность
перегрева
1003.6 1003.0
18 14.07 штиль 0 4000 м 3/1 600 м
[Sc diur, vesp Ci fib]
+29.0 +21.6 64 +37 +37 очень
душно
1005.5 1004.9
21 14.07 З 2 4000 м 1/0
[Ci fib]
+29.0 +24.1 75 +40 +40 очень
душно
1004.3 1003.7
00 15.07 штиль 0 4000 м 3/1 600 м
[Sc diur, vesp Ci fib]
+27.8 +22.5 73 +37 +37 очень
душно
1004.3 1003.7
03 15.07 З 2 10 км 4/1 600 м
[Sc diur, vesp Ci fib]
+30.8 +23.9 67 +42 +49 опасность
перегрева
1005.2 1004.6 +27.3 +36.8
06 15.07 штиль 0 10 км 9/4 600 м
[Sc diur, vesp Ac As Ci fib]
+34.0 +19.5 43 +40 +49 очень
душно
1004.8 1004.2
09 15.07 штиль 0 10 км 9/4 600 м
[Sc diur, vesp Ac trans Ci sp]
+35.6 +19.0 38 +40 +48 очень
душно
1003.6 1003.0
12 15.07 З 1 10 км 8/3 600 м
[Sc diur, vesp Ac trans Ci sp]
+32.6 +21.0 51 +40 +41 очень
душно
1003.4 1002.8 +36.6
15 15.07 штиль 0 4000 м 8/3 600 м
[Sc diur, vesp Ac trans Ci fib]
+30.4 +20.5 55 +37 +37 очень
душно
1005.6 1005.0
18 15.07 штиль 0 4000 м 6/3 600 м
[Sc diur, vesp Ac trans Ci fib]
+29.2 +21.8 64 +37 +37 очень
душно
1005.8 1005.2
21 15.07 штиль 0 4000 м 4/1 600 м
[Sc diur, vesp Ci fib]
+28.0 +22.1 70 +36 +36 очень
душно
1004.7 1004.1
00 16.07 штиль 0 4000 м 6/3 600 м
[Sc diur, vesp Ac trans Ci fib]
+26.8 +22.4 77 +35 +35 очень
душно
1004.4 1003.8
03 16.07 З 1 10 км 6/3 600 м
[Sc diur, vesp Ac trans Ci fib]
+30.2 +22.6 64 +40 +44 очень
душно
1006.7 1006.1 +26.6 +36.6
06 16.07 З 3 10 км 10/5 600 м
[Cb cap Ac As]
+32.6 +20.3 48 +39 +42 очень
душно
1006.5 1005.9
09 16.07 З 2 10 км 10/5 600 м
[Cb cap Ac As]
+33.2 +20.7 48 +40 +43 очень
душно
1004.3 1003.7
12 16.07 штиль 0 10 км 9/4 600 м
[Sc diur, vesp Ac As]
+32.6 +21.4 52 +41 +41 опасность
перегрева
1003.9 1003.3 +33.8
15 16.07 Ю 1 4000 м 9/4 600 м
[Sc diur, vesp Ac As]
+29.0 +25.6 82 +43 +43 опасность
перегрева
1005.4 1004.8
18 16.07 штиль 0 4000 м 8/3 600 м
[Sc diur, vesp Ac As]
+29.0 +24.4 76 +41 +41 опасность
перегрева
1006.9 1006.3
21 16.07 штиль 0 4000 м 9/3 600 м
[Sc diur, vesp Ac As]
+29.0 +22.5 68 +38 +38 очень
душно
1006.1 1005.5
00 17.07 штиль 0 4000 м 9/4 600 м
[Sc diur, vesp Ac As]
+28.6 +19.4 58 +34 +34 очень
душно
1006.2 1005.6
03 17.07 штиль 0 10 км 8/3 600 м
[Sc diur, vesp Ac As]
+30.4 +20.8 57 +38 +41 очень
душно
1006.6 1006.0 +28.2 +33.8
06 17.07 З 2 10 км 5/1 600 м
[Sc diur, vesp Ac trans Ci fib]
+36.6 +22.1 43 +45 +60 опасность
перегрева
1006.2 1005.6
09 17.07 Ю 4 10 км 4/1 600 м
[Sc Ac trans Ci fib]
+33.4 +27.1 70 +52 +59 опасность
перегрева
1003.7 1003.1
12 17.07 Ю 3 10 км 3/1 600 м
[Sc Ci fib]
+31.6 +27.5 79 +51 +52 опасность
перегрева
1003.4 1002.8 +38.6
15 17.07 З 2 4000 м 6/4 600 м
[Sc Ci fib]
+32.2 +22.6 57 +42 +42 опасность
перегрева
1005.4 1004.8
18 17.07 З 2 4000 м 3/1 600 м
[Sc Ci fib]
+31.0 +22.9 62 +41 +41 опасность
перегрева
1006.9 1006.3
21 17.07 З 2 4000 м 3/1 600 м
[Sc Ci fib]
+30.0 +22.4 64 +39 +39 очень
душно
1005.7 1005.1
00 18.07 З 2 4000 м 8/3 600 м
[Sc diur, vesp Ac trans Ci sp]
+29.4 +22.0 64 +38 +38 очень
душно
1006.1 1005.5
03 18.07 З 2 10 км 5/3 600 м
[Sc diur, vesp Ac trans Ci fib]
+31.4 +23.3 62 +42 +47 опасность
перегрева
1006.7 1006.1 +29.0 +38.6
06 18.07 З 1 10 км 4/3 600 м
[Sc Ci fib]
+37.6 +23.3 44 +48 +64 опасность
перегрева
1007.2 1006.6
09 18.07 З 2 10 км 4/3 600 м
[Sc Ci fib]
+35.8 +24.8 53 +49 +60 опасность
перегрева
1004.7 1004.1
12 18.07 штиль 0 10 км 4/1 600 м
[Sc Ac trans Ci fib]
+38.4 +20.8 36 +45 +46 опасность
перегрева
1003.3 1002.7 +40.0
15 18.07 З 1 4000 м 3/1 600 м
[Sc Ci fib]
+33.0 +21.5 51 +41 +41 опасность
перегрева
1005.1 1004.5
18 18.07 З 1 4000 м 4/1 600 м
[Sc Ci fib]
+32.0 +22.0 56 +41 +41 опасность
перегрева
1006.8 1006.2
21 18.07 штиль 0 4000 м 4/1 600 м
[Sc Ci fib]
+30.8 +22.6 62 +40 +40 очень
душно
1005.4 1004.8
00 19.07 штиль 0 4000 м 8/3 600 м
[Sc Ac trans Ci fib]
+30.0 +23.3 67 +40 +40 очень
душно
1005.4 1004.8
03 19.07 штиль 0 10 км 8/3 600 м
[Sc diur, vesp Ac trans Ci fib]
+30.6 +24.6 70 +43 +48 опасность
перегрева
1006.5 1005.9 +29.4 +40.0
06 19.07 ЮЗ 2 10 км 8/3 600 м
[Sc diur, vesp Ac trans Ci fib]
+37.6 +21.6 40 +45 +55 опасность
перегрева
1006.6 1006.0
09 19.07 Ю 5 10 км 9/3 600 м
[Cu Sc Ac trans Ci fib]
+32.6 +28.0 77 +53 +57 опасность
перегрева
1005.7 1005.1
12 19.07 ЮЗ 5 10 км 10/4 600 м
[Cu Sc Ac As]
+32.0 +28.5 82 +54 +54 опасность
перегрева
1004.8 1004.2 +38.0
15 19.07 ЮЗ 4 4000 м 8/4 600 м
[Cu Sc Ac trans Ci fib]
+32.0 +21.0 52 +39 +39 очень
душно
1006.7 1006.1
18 19.07 ЮЗ 2 4000 м 8/3 600 м
[Sc diur, vesp Ac trans Ci fib]
+30.0 +23.0 66 +40 +40 очень
душно
1007.7 1007.1
21 19.07 ЮЗ 2 4000 м 8/3 600 м
[Sc diur, vesp Ac trans Ci fib]
+28.6 +22.1 68 +37 +37 очень
душно
1006.6 1006.0

 

Местоположение метеостанции Thondi (Tamil Nadu, Индия): широта 9.73 долгота 79.03 высота над уровнем моря 5 м.

В архиве по умолчанию представлена погода в Thondi за последнюю неделю. Архивные данные за месяц целиком и за предыдущие месяцы, начиная с января 2011 года, Вы можете получить, выбрав интересующий диапазон дат из раскрывающегося списка и нажав кнопку "Ввод!".


*Определитесь, кто Вы:
робот инопланетянин человек

Внимание! Время в таблицах - всемирное. Для получения местного времени необходимо прибавить поправку, которая в Thondi равна 5.5 ч.

Смотрите также архив погоды в соседних городах и на ближайших метеорологических станциях:

Погода в Pamban (Tamil Nadu, Индия) (54 км)
Погода в Adiramapattinam (Tamil Nadu, Индия) (77 км)
Погода в Kudimiamalai (Tamil Nadu, Индия) (84 км)
Погода в Madurai (Tamil Nadu, Индия) (102 км)
Погода в Madurai Airport (Tamil Nadu, Индия) (105 км)
Погода в Kovilangulam (Tamil Nadu, Индия) (106 км)
Погода в Jaffna (Шри Ланка) (109 км)
Погода в Thanjavur (Tamil Nadu, Индия) (117 км)
Погода в Tiruchirapalli (Tamil Nadu, Индия) (121 км)
Погода в Mannar (Шри Ланка) (128 км)

Пояснения к столбцам:

Ветер - указаны скорость ветра в м/с - средняя за 10 мин, порывы в срок и между сроками (в фигурных скобках) и направление, откуда дует ветер: С - северный, СВ - северо-восточный, В - восточный, ЮВ - юго-восточный, Ю - южный, ЮЗ - юго-западный, З - западный, СЗ - северо-западный.
Видимость - горизонтальная дальность видимости в метрах или километрах. При видимости от 1 до 10 км при отсутствии осадков обычно наблюдается дымка, при ухудшении видимости до 1 км и менее - туман. В сухую погоду видимость может ухудшаться дымом, пылью или мглою.
Явления - указаны атмосферные явления, наблюдавшиеся в срок или в последний час перед сроком; фигурными скобками обозначены явления, наблюдавшиеся между сроками (за 1-3 часа до срока); квадратными скобками обозначены град или гололедные отложения с указанием их диаметра в мм.
Облачность - указаны через наклонную черту общая и нижняя облачность в баллах и высота нижней границы облаков в метрах; квадратными скобками обозначены формы облаков: Ci - перистые, Cs - перисто-слоистые, Cc - перисто-кучевые, Ac - высококучевые, As - высокослоистые, Sc - слоисто-кучевые, Ns - слоисто-дождевые, Cu - кучевые, Cb - кучево-дождевые. Подробнее классификацию облаков см. в Атласе облаков (PDF).
T - Температура воздуха - температура, измеренная на высоте 2 м над землей.
Td - Температура точки росы - температура, при понижении до которой содержащийся в воздухе водяной пар достигнет насыщения.
f - Относительная влажность воздуха - влажноcть воздуха, измеренная на высоте 2 м над землей.
Te - Эффективная температура - температура, которую ощущает одетый по сезону человек в тени. Характеристика душности погоды. При расчете учитывается влияние влажности воздуха и скорости ветра на теплоощущения человека.
Tes - Эффективная температура на солнце - температура, которую ощущает человек, с поправкой на солнечный нагрев. Характеристика знойности погоды. Зависит от высоты солнца над горизонтом, облачности и скорости ветра. Ночью, в пасмурную погоду, а также при ветре 12 м/с и более поправка равна нулю.
P - Атмосферное давление - приведенное к уровню моря атмосферное давление.
Po - Атмосферное давление - измеренное на уровне метеостанции атмосферное давление.
Tmin - Минимальная температура - минимум температуры воздуха на высоте 2 м над землей.
Tmax - Максимальная температура - максимум температуры воздуха на высоте 2 м над землей.
R - Количество осадков - Количество выпавших осадков за период времени, мм. При наведении курсора мыши на число - период времени, за который выпало указанное количество осадков.
R24 - Количество осадков - Количество выпавших осадков за 24 часа, мм.
S - Снежный покров - Высота снежного покрова, см. При наведении курсора мыши на число - состояние снежного покрова и степень покрытия местности в баллах.